H1 CPF 2 NER 2024 10 25 9 299 01 glonass139 H2 1808601 9139 43687 2024 10 25 0 0 0 2024 10 28 23 45 0 900 1 1 0 0 0 1 H9 10 0 60608 0.00000 0 -25508314.136 270747.002 364341.259 10 0 60608 900.00000 0 -25262582.374 388603.500 3555920.058 10 0 60608 1800.00000 0 -24623203.863 442405.967 6678471.565 10 0 60608 2700.00000 0 -23611764.857 381017.529 9671413.426 10 0 60608 3600.00000 0 -22261837.670 158669.263 12476708.973 10 0 60608 4500.00000 0 -20617616.304 -262863.624 15039987.945 10 0 60608 5400.00000 0 -18732128.419 -912407.381 17311593.710 10 0 60608 6300.00000 0 -16665098.744 -1807935.266 19247537.352 10 0 60608 7200.00000 0 -14480553.196 -2955574.383 20810340.929 10 0 60608 8100.00000 0 -12244263.321 -4349115.796 21969754.606 10 0 60608 9000.00000 0 -10021136.833 -5970048.969 22703334.783 10 0 60608 9900.00000 0 -7872661.951 -7788119.847 22996872.959 10 0 60608 10800.00000 0 -5854510.632 -9762390.337 22844667.763 10 0 60608 11700.00000 0 -4014399.073 -11842756.306 22249635.335 10 0 60608 12600.00000 0 -2390293.181 -13971862.272 21223255.998 10 0 60608 13500.00000 0 -1009032.429 -16087334.603 19785357.965 10 0 60608 14400.00000 0 114571.609 -18124241.698 17963741.620 10 0 60608 15300.00000 0 978125.301 -20017679.972 15793650.761 10 0 60608 16200.00000 0 1591515.852 -21705378.844 13317099.956 10 0 60608 17100.00000 0 1976253.256 -23130216.750 10582069.915 10 0 60608 18000.00000 0 2164319.085 -24242543.360 7641585.444 10 0 60608 18900.00000 0 2196570.697 -25002210.637 4552693.016 10 0 60608 19800.00000 0 2120768.246 -25380227.340 1375357.191 10 0 60608 20700.00000 0 1989307.925 -25359966.647 -1828702.892 10 0 60608 21600.00000 0 1856757.689 -24937875.273 -4997214.322 10 0 60608 22500.00000 0 1777300.305 -24123653.385 -8068564.777 10 0 60608 23400.00000 0 1802192.771 -22939896.708 -10983006.210 10 0 60608 24300.00000 0 1977350.743 -21421215.099 -13683823.707 10 0 60608 25200.00000 0 2341161.426 -19612863.903 -16118446.030 10 0 60608 26100.00000 0 2922618.852 -17568945.184 -18239475.446 10 0 60608 27000.00000 0 3739861.782 -15350254.098 -20005616.243 10 0 60608 27900.00000 0 4799177.409 -13021860.618 -21382483.396 10 0 60608 28800.00000 0 6094514.255 -10650527.984 -22343275.376 10 0 60608 29700.00000 0 7607526.034 -8302075.943 -22869297.906 10 0 60608 30600.00000 0 9308145.794 -6038799.015 -22950328.502 10 0 60608 31500.00000 0 11155667.118 -3917047.538 -22584814.788 10 0 60608 32400.00000 0 13100287.810 -1985072.176 -21779902.899 10 0 60608 33300.00000 0 15085051.881 -281221.319 -20551295.541 10 0 60608 34200.00000 0 17048108.787 1167434.144 -18922942.642 10 0 60608 35100.00000 0 18925195.483 2345992.340 -16926570.751 10 0 60608 36000.00000 0 20652237.333 3252092.285 -14601060.499 10 0 60608 36900.00000 0 22167958.848 3895752.153 -11991684.466 10 0 60608 37800.00000 0 23416394.718 4298682.466 -9149220.568 10 0 60608 38700.00000 0 24349195.820 4493104.937 -6128958.575 10 0 60608 39600.00000 0 24927633.433 4520128.498 -2989619.583 10 0 60608 40500.00000 0 25124217.741 4427752.687 207790.041 10 0 60608 41400.00000 0 24923862.970 4268584.183 3401167.409 10 0 60608 42300.00000 0 24324550.679 4097364.215 6528520.949 10 0 60608 43200.00000 0 23337463.954 3968412.276 9529173.495 10 0 60608 44100.00000 0 21986587.419 3933094.843 12344937.131 10 0 60608 45000.00000 0 20307790.450 4037426.383 14921236.982 10 0 60608 45900.00000 0 18347432.360 4319904.046 17208162.572 10 0 60608 46800.00000 0 16160548.118 4809667.346 19161426.945 10 0 60608 47700.00000 0 13808690.321 5525060.266 20743215.797 10 0 60608 48600.00000 0 11357517.015 6472656.256 21922911.153 10 0 60608 49500.00000 0 8874225.125 7646787.273 22677676.597 10 0 60608 50400.00000 0 6424935.278 9029597.013 22992893.669 10 0 60608 51300.00000 0 4072135.473 10591616.867 22862441.709 10 0 60608 52200.00000 0 1872288.422 12292841.525 22288816.206 10 0 60608 53100.00000 0 -126299.441 14084260.584 21283083.464 10 0 60608 54000.00000 0 -1885260.089 15909783.595 19864672.183 10 0 60608 54900.00000 0 -3377524.295 17708479.708 18061005.378 10 0 60608 55800.00000 0 -4588204.599 19417039.717 15906978.865 10 0 60608 56700.00000 0 -5514964.842 20972358.805 13444295.354 10 0 60608 57600.00000 0 -6167861.391 22314132.861 10720665.889 10 0 60608 58500.00000 0 -6568663.049 23387360.023 7788893.082 10 0 60608 59400.00000 0 -6749678.542 24144642.798 4705853.097 10 0 60608 60300.00000 0 -6752141.070 24548193.692 1531395.483 10 0 60608 61200.00000 0 -6624218.207 24571459.239 -1672818.011 10 0 60608 62100.00000 0 -6418731.617 24200293.354 -4844512.988 10 0 60608 63000.00000 0 -6190683.408 23433629.294 -7922016.692 10 0 60608 63900.00000 0 -5994694.544 22283620.853 -10845462.785 10 0 60608 64800.00000 0 -5882464.579 20775245.783 -13557962.422 10 0 60608 65700.00000 0 -5900361.284 18945386.952 -16006718.119 10 0 60608 66600.00000 0 -6087243.325 16841429.112 -18144057.965 10 0 60608 67500.00000 0 -6472609.273 14519429.540 -19928369.462 10 0 60608 68400.00000 0 -7075152.419 12041938.859 -21324914.369 10 0 60608 69300.00000 0 -7901783.548 9475563.060 -22306508.402 10 0 60608 70200.00000 0 -8947163.965 6888368.533 -22854052.469 10 0 60608 71100.00000 0 -10193769.426 4347238.395 -22956905.103 10 0 60608 72000.00000 0 -11612483.070 1915290.316 -22613088.972 10 0 60608 72900.00000 0 -13163693.074 -350536.738 -21829327.568 10 0 60608 73800.00000 0 -14798849.405 -2401626.708 -20620911.547 10 0 60608 74700.00000 0 -16462414.573 -4199472.828 -19011397.455 10 0 60608 75600.00000 0 -18094126.628 -5717032.638 -17032144.852 10 0 60608 76500.00000 0 -19631479.405 -6939596.274 -14721701.003 10 0 60608 77400.00000 0 -21012315.743 -7865133.204 -12125045.312 10 0 60608 78300.00000 0 -22177424.574 -8504104.589 -9292708.482 10 0 60608 79200.00000 0 -23073032.598 -8878751.008 -6279783.879 10 0 60608 80100.00000 0 -23653085.647 -9021887.347 -3144850.825 10 0 60608 81000.00000 0 -23881223.757 -8975257.460 51168.741 10 0 60608 81900.00000 0 -23732366.982 -8787519.644 3246197.467 10 0 60608 82800.00000 0 -23193845.436 -8511949.416 6378210.047 10 0 60608 83700.00000 0 -22266026.383 -8203957.767 9386437.117 10 0 60608 84600.00000 0 -20962412.367 -7918530.541 12212542.042 10 0 60608 85500.00000 0 -19309206.600 -7707697.564 14801747.747 10 0 60609 0.00000 0 -17344364.277 -7618138.539 17103891.923 10 0 60609 900.00000 0 -15116168.433 -7689026.578 19074391.931 10 0 60609 1800.00000 0 -12681392.390 -7950200.115 20675098.481 10 0 60609 2700.00000 0 -10103121.473 -8420739.715 21875026.662 10 0 60609 3600.00000 0 -7448326.477 -9108009.578 22650948.038 10 0 60609 4500.00000 0 -4785287.791 -10007203.967 22987834.563 10 0 60609 5400.00000 0 -2180976.069 -11101417.867 22879146.263 10 0 60609 6300.00000 0 301503.271 -12362239.589 22326957.598 10 0 60609 7200.00000 0 2605297.077 -13750841.396 21341920.145 10 0 60609 8100.00000 0 4681925.409 -15219523.688 19943062.105 10 0 60609 9000.00000 0 6493049.602 -16713649.481 18157427.873 10 0 60609 9900.00000 0 8011815.013 -18173889.478 16019563.778 10 0 60609 10800.00000 0 9223713.409 -19538684.961 13570858.911 10 0 60609 11700.00000 0 10126929.698 -20746826.242 10858752.631 10 0 60609 12600.00000 0 10732158.912 -21740039.063 7935823.118 10 0 60609 13500.00000 0 11061901.500 -22465470.640 4858773.772 10 0 60609 14400.00000 0 11149266.710 -22877970.528 1687336.489 10 0 60609 15300.00000 0 11036334.686 -22942069.774 -1516887.092 10 0 60609 16200.00000 0 10772146.593 -22633573.971 -4691623.869 10 0 60609 17100.00000 0 10410408.078 -21940701.872 -7775143.447 10 0 60609 18000.00000 0 10007003.746 -20864720.361 -10707463.916 10 0 60609 18900.00000 0 9617428.486 -19420047.569 -13431525.130 10 0 60609 19800.00000 0 9294245.175 -17633818.497 -15894305.861 10 0 60609 20700.00000 0 9084677.277 -15544930.285 -18047862.307 10 0 60609 21600.00000 0 9028439.159 -13202606.193 -19850267.212 10 0 60609 22500.00000 0 9155896.819 -10664537.790 -21266430.804 10 0 60609 23400.00000 0 9486637.641 -7994682.632 -22268787.340 10 0 60609 24300.00000 0 10028510.384 -5260809.107 -22837833.758 10 0 60609 25200.00000 0 10777176.598 -2531890.672 -22962510.010 10 0 60609 26100.00000 0 11716192.957 124542.005 -22640413.741 10 0 60609 27000.00000 0 12817621.466 2644980.969 -21877845.315 10 0 60609 27900.00000 0 14043142.185 4972345.865 -20689682.454 10 0 60609 28800.00000 0 15345621.770 7058114.110 -19099087.068 10 0 60609 29700.00000 0 16671071.890 8864088.367 -17137050.136 10 0 60609 30600.00000 0 17960915.017 10363728.633 -14841783.633 10 0 60609 31500.00000 0 19154462.041 11542994.541 -12257971.544 10 0 60609 32400.00000 0 20191497.155 12400664.220 -9435894.814 10 0 60609 33300.00000 0 21014860.892 12948118.063 -6430447.597 10 0 60609 34200.00000 0 21572922.258 13208598.302 -3300064.418 10 0 60609 35100.00000 0 21821835.584 13215977.418 -105579.633 10 0 60609 36000.00000 0 21727486.961 13013089.009 3090958.121 10 0 60609 36900.00000 0 21267048.218 12649693.080 6227492.923 10 0 60609 37800.00000 0 20430073.160 12180162.941 9243166.162 10 0 60609 38700.00000 0 19219090.043 11660992.308 12079495.193 10 0 60609 39600.00000 0 17649665.577 11148228.474 14681503.155 10 0 60609 40500.00000 0 15749937.804 10694940.090 16998778.388 10 0 60609 41400.00000 0 13559637.333 10348826.272 18986443.496 10 0 60609 42300.00000 0 11128637.576 10150067.444 20606016.056 10 0 60609 43200.00000 0 8515093.934 10129507.923 21826145.287 10 0 60609 44100.00000 0 5783248.602 10307246.187 22623211.435 10 0 60609 45000.00000 0 3000991.235 10691691.677 22981777.186 10 0 60609 45900.00000 0 237275.499 11279127.551 22894883.165 10 0 60609 46800.00000 0 -2440502.799 12053797.896 22364182.271 10 0 60609 47700.00000 0 -4969058.676 12988516.169 21399910.385 10 0 60609 48600.00000 0 -7291597.693 14045770.154 20020693.782 10 0 60609 49500.00000 0 -9359924.991 15179278.124 18253196.393 10 0 60609 50400.00000 0 -11136197.198 16335932.071 16131612.863 10 0 60609 51300.00000 0 -12594245.256 17458047.617 13697016.176 10 0 60609 52200.00000 0 -13720413.714 18485827.087 10996571.323 10 0 60609 53100.00000 0 -14513881.925 19359932.981 8082629.254 10 0 60609 54000.00000 0 -14986454.029 20024063.940 5011717.773 10 0 60609 54900.00000 0 -15161826.662 20427424.653 1843448.330 10 0 60609 55800.00000 0 -15074365.365 20526985.158 -1360640.301 10 0 60609 56700.00000 0 -14767441.347 20289433.321 -4538278.983 10 0 60609 57600.00000 0 -14291399.128 19692736.986 -7627682.214 10 0 60609 58500.00000 0 -13701241.283 18727248.508 -10568754.923 10 0 60609 59400.00000 0 -13054128.703 17396303.597 -13304267.877 10 0 60609 60300.00000 0 -12406802.748 15716287.728 -15780978.055 10 0 60609 61200.00000 0 -11813039.021 13716165.834 -17950671.467 10 0 60609 62100.00000 0 -11321241.221 11436493.805 -19771107.493 10 0 60609 63000.00000 0 -10972277.544 8927952.178 -21206845.934 10 0 60609 63900.00000 0 -10797651.673 6249462.599 -22229940.369 10 0 60609 64800.00000 0 -10818086.182 3465965.177 -22820484.246 10 0 60609 65700.00000 0 -11042578.526 645949.038 -22966999.082 10 0 60609 66600.00000 0 -11467969.756 -2141161.260 -22666657.310 10 0 60609 67500.00000 0 -12079044.269 -4827654.876 -21925335.623 10 0 60609 68400.00000 0 -12849156.433 -7350109.441 -20757497.885 10 0 60609 69300.00000 0 -13741357.603 -9651784.600 -19185910.087 10 0 60609 70200.00000 0 -14709975.830 -11684735.253 -17241193.001 10 0 60609 71100.00000 0 -15702581.431 -13411557.216 -14961221.383 10 0 60609 72000.00000 0 -16662255.201 -14806693.446 -12390381.634 10 0 60609 72900.00000 0 -17530063.221 -15857247.564 -9578702.606 10 0 60609 73800.00000 0 -18247633.460 -16563272.098 -6580876.789 10 0 60609 74700.00000 0 -18759725.054 -16937521.037 -3455191.404 10 0 60609 75600.00000 0 -19016681.478 -17004678.840 -262390.676 10 0 60609 76500.00000 0 -18976663.847 -16800100.106 2935508.045 10 0 60609 77400.00000 0 -18607569.935 -16368114.594 6076420.797 10 0 60609 78300.00000 0 -17888557.938 -15759970.477 9099402.293 10 0 60609 79200.00000 0 -16811110.764 -15031503.681 11945826.407 10 0 60609 80100.00000 0 -15379596.062 -14240632.354 14560518.929 10 0 60609 81000.00000 0 -13611298.412 -13444782.486 16892820.925 10 0 60609 81900.00000 0 -11535922.106 -12698353.129 18897562.688 10 0 60609 82800.00000 0 -9194584.978 -12050327.620 20535930.170 10 0 60609 83700.00000 0 -6638344.673 -11542130.715 21776208.082 10 0 60609 84600.00000 0 -3926317.897 -11205821.000 22594386.310 10 0 60609 85500.00000 0 -1123469.796 -11062693.754 22974618.827 10 0 60610 0.00000 0 1701835.778 -11122352.344 22909527.033 10 0 60610 900.00000 0 4480426.487 -11382286.768 22400342.031 10 0 60610 1800.00000 0 7144942.509 -11827976.861 21456883.420 10 0 60610 2700.00000 0 9632386.224 -12433516.235 20097374.674 10 0 60610 3600.00000 0 11886492.420 -13162731.255 18348098.088 10 0 60610 4500.00000 0 13859823.324 -13970748.934 16242895.157 10 0 60610 5400.00000 0 15515502.015 -14805948.712 13822520.990 10 0 60610 6300.00000 0 16828512.780 -15612217.002 11133864.154 10 0 60610 7200.00000 0 17786514.584 -16331410.299 8229046.003 10 0 60610 8100.00000 0 18390133.804 -16905923.521 5164416.093 10 0 60610 9000.00000 0 18652724.223 -17281255.441 1999462.541 10 0 60610 9900.00000 0 18599604.207 -17408462.540 -1204341.778 10 0 60610 10800.00000 0 18266803.255 -17246396.939 -4384734.800 10 0 60610 11700.00000 0 17699370.916 -16763632.857 -7479879.004 10 0 60610 12600.00000 0 16949319.611 -15939998.854 -10429569.115 10 0 60610 13500.00000 0 16073288.604 -14767649.642 -13176409.577 10 0 60610 14400.00000 0 15130028.273 -13251630.609 -15666938.128 10 0 60610 15300.00000 0 14177811.527 -11409909.629 -17852672.845 10 0 60610 16200.00000 0 13271882.363 -9272873.337 -19691061.693 10 0 60610 17100.00000 0 12462049.839 -6882307.614 -21146315.624 10 0 60610 18000.00000 0 11790529.592 -4289903.937 -22190108.733 10 0 60610 18900.00000 0 11290124.276 -1555353.153 -22802131.744 10 0 60610 19800.00000 0 10982819.886 1255894.417 -22970488.059 10 0 60610 20700.00000 0 10878857.186 4075109.571 -22691924.789 10 0 60610 21600.00000 0 10976317.228 6832902.596 -21971894.409 10 0 60610 22500.00000 0 11261238.185 9461870.690 -20824445.995 10 0 60610 23400.00000 0 11708258.161 11899164.544 -19271948.307 10 0 60610 24300.00000 0 12281756.409 14088867.625 -17344650.246 10 0 60610 25200.00000 0 12937444.259 15984089.605 -15080087.367 10 0 60610 26100.00000 0 13624338.035 17548687.322 -12522346.183 10 0 60610 27000.00000 0 14287030.057 18758542.395 -9721200.858 10 0 60610 27900.00000 0 14868161.196 19602343.265 -6731139.358 10 0 60610 28800.00000 0 15310989.959 20081840.279 -3610298.529 10 0 60610 29700.00000 0 15561949.000 20211564.698 -419329.263 10 0 60610 30600.00000 0 15573080.660 20018025.052 2779785.631 10 0 60610 31500.00000 0 15304248.279 19538416.222 5924937.340 10 0 60610 32400.00000 0 14725029.732 18818897.080 8955096.939 10 0 60610 33300.00000 0 13816213.160 17912510.413 11811497.629 10 0 60610 34200.00000 0 12570831.769 16876833.636 14438770.364 10 0 60610 35100.00000 0 10994694.017 15771459.748 16786011.119 10 0 60610 36000.00000 0 9106386.654 14655414.617 18807759.723 10 0 60610 36900.00000 0 6936750.086 13584618.992 20464871.977 10 0 60610 37800.00000 0 4527847.344 12609501.241 21725269.192 10 0 60610 38700.00000 0 1931468.747 11772860.252 22564551.613 10 0 60610 39600.00000 0 -792766.545 11108067.202 22966464.802 10 0 60610 40500.00000 0 -3579634.577 10637680.674 22923210.747 10 0 60610 41400.00000 0 -6360765.377 10372532.377 22435598.182 10 0 60610 42300.00000 0 -9067236.034 10311321.245 21513029.368 10 0 60610 43200.00000 0 -11632192.078 10440732.683 20173323.410 10 0 60610 44100.00000 0 -13993389.872 10736078.006 18442378.941 10 0 60610 45000.00000 0 -16095555.676 11162427.601 16353681.873 10 0 60610 45900.00000 0 -17892464.299 11676190.736 13947666.700 10 0 60610 46800.00000 0 -19348651.529 12227076.202 11270942.595 10 0 60610 47700.00000 0 -20440689.230 12760351.820 8375398.232 10 0 60610 48600.00000 0 -21157970.121 13219307.992 5317201.836 10 0 60610 49500.00000 0 -21502969.267 13547821.500 2155715.172 10 0 60610 50400.00000 0 -21490971.107 13692911.020 -1047657.698 10 0 60610 51300.00000 0 -21149273.497 13607175.820 -4230664.519 10 0 60610 52200.00000 0 -20515901.983 13251013.503 -7331418.309 10 0 60610 53100.00000 0 -19637888.628 12594521.811 -10289605.969 10 0 60610 54000.00000 0 -18569188.229 11619002.705 -13047667.781 10 0 60610 54900.00000 0 -17368319.980 10318003.467 -15551924.146 10 0 60610 55800.00000 0 -16095834.575 8697849.225 -17753626.820 10 0 60610 56700.00000 0 -14811714.065 6777642.856 -19609913.623 10 0 60610 57600.00000 0 -13572814.556 4588730.650 -21084647.574 10 0 60610 58500.00000 0 -12430459.957 2173654.860 -22149123.828 10 0 60610 59400.00000 0 -11428288.372 -415364.185 -22782630.546 10 0 60610 60300.00000 0 -10600441.888 -3118353.867 -22972852.823 10 0 60610 61200.00000 0 -9970175.862 -5869843.251 -22716111.890 10 0 60610 62100.00000 0 -9548945.893 -8601351.781 -22017435.109 10 0 60610 63000.00000 0 -9336010.387 -11244009.400 -20890455.544 10 0 60610 63900.00000 0 -9318564.798 -13731199.243 -19357143.204 10 0 60610 64800.00000 0 -9472401.069 -16001113.130 -17447373.336 10 0 60610 65700.00000 0 -9763063.626 -17999113.734 -15198340.291 10 0 60610 66600.00000 0 -10147452.215 -19679805.357 -12653828.543 10 0 60610 67500.00000 0 -10575803.021 -21008727.526 -9863355.306 10 0 60610 68400.00000 0 -10993963.477 -21963601.452 -6881201.732 10 0 60610 69300.00000 0 -11345863.776 -22535078.240 -3765351.987 10 0 60610 70200.00000 0 -11576079.859 -22726958.740 -576361.340 10 0 60610 71100.00000 0 -11632378.847 -22555877.202 2623824.213 10 0 60610 72000.00000 0 -11468138.825 -22050463.449 5773073.277 10 0 60610 72900.00000 0 -11044540.316 -21250020.202 8810275.552 10 0 60610 73800.00000 0 -10332436.682 -20202772.389 11676525.810 10 0 60610 74700.00000 0 -9313824.344 -18963763.089 14316262.359 10 0 60610 75600.00000 0 -7982850.728 -17592485.176 16678338.190 10 0 60610 76500.00000 0 -6346317.281 -16150348.458 18717004.585 10 0 60610 77400.00000 0 -4423656.068 -14698088.506 20392788.899 10 0 60610 78300.00000 0 -2246380.292 -13293225.346 21673250.449 10 0 60610 79200.00000 0 142969.166 -11987677.702 22533600.922 10 0 60610 80100.00000 0 2692338.360 -10825631.681 22957178.188 10 0 60610 81000.00000 0 5342074.357 -9841751.968 22935765.213 10 0 60610 81900.00000 0 8027160.746 -9059809.310 22469748.354 10 0 60610 82800.00000 0 10679683.322 -8491780.768 21568112.195 10 0 60610 83700.00000 0 13231425.202 -8137459.720 20248270.826 10 0 60610 84600.00000 0 15616485.161 -7984591.509 18535738.267 10 0 60610 85500.00000 0 17773811.686 -8009528.962 16463643.593 10 0 60611 0.00000 0 19649548.243 -8178380.341 14072099.345 10 0 60611 900.00000 0 21199093.797 -8448601.900 11407432.975 10 0 60611 1800.00000 0 22388790.506 -8770968.119 8521298.458 10 0 60611 2700.00000 0 23197171.587 -9091837.140 5469680.138 10 0 60611 3600.00000 0 23615714.374 -9355615.759 2311810.591 10 0 60611 4500.00000 0 23649067.730 -9507319.750 -890977.973 10 0 60611 5400.00000 0 23314743.689 -9495120.768 -4076446.287 10 0 60611 6300.00000 0 22642285.928 -9272771.269 -7182661.112 10 0 60611 7200.00000 0 21671949.989 -8801803.788 -10149204.605 10 0 60611 8100.00000 0 20452950.644 -8053410.116 -12918355.792 10 0 60611 9000.00000 0 19041350.363 -7009919.417 -15436220.384 10 0 60611 9900.00000 0 17497678.081 -5665811.177 -17653786.164 10 0 60611 10800.00000 0 15884378.821 -4028218.545 -19527882.835 10 0 60611 11700.00000 0 14263201.917 -2116899.238 -21022027.173 10 0 60611 12600.00000 0 12692638.060 36326.272 -22107136.722 10 0 60611 13500.00000 0 11225513.104 2388647.042 -22762098.048 10 0 60611 14400.00000 0 9906839.790 4887800.671 -22974178.509 10 0 60611 15300.00000 0 8772017.450 7474015.535 -22739273.630 10 0 60611 16200.00000 0 7845454.908 10082275.833 -22061985.423 10 0 60611 17100.00000 0 7139673.741 12644815.452 -20955530.290 10 0 60611 18000.00000 0 6654928.758 15093736.958 -19441478.433 10 0 60611 18900.00000 0 6379360.605 17363646.784 -17549330.000 10 0 60611 19800.00000 0 6289672.929 19394196.940 -15315936.300 10 0 60611 20700.00000 0 6352304.337 21132427.424 -12784777.558 10 0 60611 21600.00000 0 6525044.479 22534811.862 -10005111.491 10 0 60611 22500.00000 0 6759024.824 23568921.388 -7031009.559 10 0 60611 23400.00000 0 7000998.877 24214637.803 -3920300.113 10 0 60611 24300.00000 0 7195814.407 24464866.100 -733439.476 10 0 60611 25200.00000 0 7288972.258 24325717.536 2467666.586 10 0 60611 26100.00000 0 7229162.811 23816156.748 5620867.507 10 0 60611 27000.00000 0 6970672.304 22967128.959 8664974.900 10 0 60611 27900.00000 0 6475556.961 21820205.076 11540948.203 10 0 60611 28800.00000 0 5715492.871 20425802.568 14193035.894 10 0 60611 29700.00000 0 4673223.438 18841057.505 16569850.459 10 0 60611 30600.00000 0 3343543.230 17127437.408 18625356.774 10 0 60611 31500.00000 0 1733776.575 15348194.931 20319755.491 10 0 60611 32400.00000 0 -136269.691 13565768.611 21620245.288 10 0 60611 33300.00000 0 -2234878.101 11839238.638 22501650.212 10 0 60611 34200.00000 0 -4519494.170 10221942.991 22946900.927 10 0 60611 35100.00000 0 -6938258.254 8759352.298 22947361.369 10 0 60611 36000.00000 0 -9431933.366 7487290.895 22502995.013 10 0 60611 36900.00000 0 -11936150.338 6430577.175 21622367.733 10 0 60611 37800.00000 0 -14383878.644 5602139.003 20322487.033 10 0 60611 38700.00000 0 -16708021.765 5002640.333 18628480.235 10 0 60611 39600.00000 0 -18844030.492 4620634.169 16573117.029 10 0 60611 40500.00000 0 -20732426.550 4433235.156 14196184.603 10 0 60611 41400.00000 0 -22321132.081 4407283.532 11543726.313 10 0 60611 42300.00000 0 -23567508.266 4500951.565 8667157.619 10 0 60611 43200.00000 0 -24440017.909 4665724.939 5622275.518 10 0 60611 44100.00000 0 -24919442.106 4848675.549 2468179.979 10 0 60611 45000.00000 0 -24999599.586 4994929.582 -733871.930 10 0 60611 45900.00000 0 -24687537.816 5050226.124 -3921657.032 10 0 60611 46800.00000 0 -24003187.321 4963457.347 -7033198.697 10 0 60611 47700.00000 0 -22978493.239 4689081.802 -10007976.983 10 0 60611 48600.00000 0 -21656060.296 4189307.448 -12788112.028 10 0 60611 49500.00000 0 -20087368.039 3435950.658 -15319496.905 10 0 60611 50400.00000 0 -18330631.338 2411891.007 -17552857.127 10 0 60611 51300.00000 0 -16448396.318 1112058.829 -19444715.581 10 0 60611 52200.00000 0 -14504972.945 -456087.752 -20958243.651 10 0 60611 53100.00000 0 -12563812.365 -2272617.909 -22063981.643 10 0 60611 54000.00000 0 -10684939.157 -4305714.406 -22740414.414 10 0 60611 54900.00000 0 -8922546.247 -6512767.743 -22974391.006 10 0 60611 55800.00000 0 -7322853.115 -8841933.335 -22761380.221 10 0 60611 56700.00000 0 -5922316.626 -11234087.346 -22105557.321 10 0 60611 57600.00000 0 -4746268.802 -13625100.087 -21019720.316 10 0 60611 58500.00000 0 -3808037.760 -15948332.359 -19525037.605 10 0 60611 59400.00000 0 -3108587.524 -18137250.765 -17650632.025 10 0 60611 60300.00000 0 -2636690.538 -20128052.954 -15433009.491 10 0 60611 61200.00000 0 -2369624.182 -21862193.178 -12915343.547 10 0 60611 62100.00000 0 -2274360.433 -23288702.746 -10146629.952 10 0 60611 63000.00000 0 -2309197.046 -24366208.543 -7180728.052 10 0 60611 63900.00000 0 -2425759.945 -25064565.413 -4075308.026 10 0 60611 64800.00000 0 -2571290.921 -25366034.563 -890724.977 10 0 60611 65700.00000 0 -2691122.769 -25265959.284 2311157.735 10 0 60611 66600.00000 0 -2731236.245 -24772910.484 5468172.467 10 0 60611 67500.00000 0 -2640789.979 -23908296.897 8519054.777 10 0 60611 68400.00000 0 -2374515.873 -22705457.265 11404630.711 10 0 60611 69300.00000 0 -1894878.464 -21208273.499 14068960.791 10 0 60611 70200.00000 0 -1173906.936 -19469363.618 16460418.744 10 0 60611 71100.00000 0 -194622.423 -17547930.596 18532684.621 10 0 60611 72000.00000 0 1047999.658 -15507357.212 20245633.751 10 0 60611 72900.00000 0 2546572.983 -13412647.134 21566105.282 10 0 60611 73800.00000 0 4281369.096 -11327818.430 22468536.448 10 0 60611 74700.00000 0 6220909.537 -9313357.269 22935451.214 10 0 60611 75600.00000 0 8323057.651 -7423836.753 22957794.683 10 0 60611 76500.00000 0 10536565.917 -5705798.766 22535107.331 10 0 60611 77400.00000 0 12803015.799 -4195985.754 21675535.911 10 0 60611 78300.00000 0 15059070.960 -2919994.897 20395680.669 10 0 60611 79200.00000 0 17238951.621 -1891409.718 18720281.301 10 0 60611 80100.00000 0 19277028.431 -1111444.582 16681746.928 10 0 60611 81000.00000 0 21110428.919 -569116.338 14319538.173 10 0 60611 81900.00000 0 22681548.678 -241935.565 11679412.174 10 0 60611 82800.00000 0 23940362.835 -97088.211 8812544.113 10 0 60611 83700.00000 0 24846441.129 -93057.846 5774541.381 10 0 60611 84600.00000 0 25370582.135 -181620.055 2624368.828 10 0 60611 85500.00000 0 25495997.305 -310124.676 -576794.339 99